[[{"header":{"parameterUnit":"m.s-1","parameterCategory":1,"la1":30.2991,"la2":30.254,"lo1":-89.0895,"lo2":-89.0444,"dy":0.0017,"dx":0.0017,"nx":28,"ny":28,"refTime":"2023-08-09T03:00:00:Z","depth":0,"parameterNumber":2,"parameterNumberName":"U-component_of_WINDS"},"data":[0,0,0,0,0,0,0,0,0,0,0,0,0,0,0,0,0,0,0,0,0,0,0,0,0,0,0,0,0,0,0,0,0,0,0,0,0,0,0,0,0,0,0,0,0,0,0,0,0,0,0,0,0,0,0,0,0,0,1.5708,1.5709,0,1.5799,1.58,1.5801,1.5799,1.5798,1.5797,1.5795,1.5895,1.5899,1.5902,0,0,0,0,0,0,0,0,0,0,0,0,0,1.554,1.5543,1.5708,1.5709,1.571,1.5798,1.58,1.5801,1.5799,1.5798,1.5796,1.5795,1.5894,1.5898,1.5903,0,0,0,0,0,0,0,0,0,0,0,0,0,1.562,1.5544,1.5708,1.572,1.5722,1.5798,1.58,1.5801,1.58,1.5798,1.5796,1.5794,1.5892,1.5898,1.5903,1.5975,0,0,1.5921,1.5923,0,0,0,0,0,0,0,0,1.5616,1.5626,1.5717,1.5719,1.5722,1.5785,1.5777,1.586,1.58,1.577,1.5795,1.5793,1.586,1.5869,1.589,1.598,1.5984,1.5921,1.5925,1.5927,1.5929,0,0,0,0,0,0,0,1.561,1.5623,1.5744,1.5718,1.5721,1.5723,1.5732,1.5793,1.5825,1.5773,1.5773,1.5783,1.5861,1.5884,1.5892,1.5986,1.5921,1.5926,1.593,1.5932,1.6141,1.6143,0,0,0,0,0,0,1.5601,1.5618,1.5741,1.5747,1.5663,1.5727,1.5738,1.5767,1.5824,1.5831,1.5785,1.5783,1.5876,1.5886,1.5896,1.5984,1.5927,1.5932,1.5936,1.6139,1.6141,1.6143,0,0,0,0,0,0,1.5598,1.5612,1.5738,1.5682,1.5698,1.5732,1.5765,1.577,1.5793,1.5833,1.5839,1.5802,1.5874,1.5888,1.5955,1.5988,1.5935,1.594,1.6136,1.6139,1.6142,1.6162,0,0,0,0,0,0,1.5593,1.5611,1.5637,1.5683,1.5701,1.5794,1.5767,1.5773,1.5802,1.58,1.5851,1.5858,1.5874,1.5947,1.5961,1.5994,1.5945,1.6133,1.6137,1.6141,1.6158,1.6165,1.6171,0,0,0,0,0,1.5587,1.564,1.5638,1.5653,1.5735,1.5796,1.5806,1.5822,1.5804,1.5832,1.5858,1.5856,1.5982,1.5954,1.597,1.6005,1.6131,1.6136,1.6141,1.6155,1.6164,1.6171,0,0,0,0,0,0,1.56,1.5647,1.5645,1.5715,1.5751,1.5795,1.5831,1.5831,1.5874,1.5871,1.5891,1.5903,1.597,1.5995,1.5963,1.6079,1.6055,1.6063,1.606,1.6068,1.6074,1.6068,1.5949,0,0,0,0,0,1.561,1.5654,1.5693,1.5751,1.5769,1.5797,1.5824,1.5833,1.5872,1.5888,1.5919,1.5959,1.6008,1.6039,1.6086,1.6162,1.6173,1.6194,1.62,1.6205,1.6213,1.6255,1.6265,1.6159,1.6159,1.6159,0,0,1.5634,1.5665,1.5691,1.5755,1.5784,1.583,1.581,1.586,1.5895,1.5897,1.5961,1.5986,1.6032,1.6104,1.6137,1.6126,1.6244,1.6212,1.6215,1.622,1.6261,1.6271,1.628,1.6162,1.6162,1.6161,0,0,1.57,1.5727,1.5778,1.5807,1.5851,1.5868,1.5881,1.5925,1.594,1.6005,1.6007,1.6051,1.6134,1.6166,1.6194,1.6272,1.6272,1.6287,1.632,1.6361,1.6369,1.6377,1.6405,1.6415,1.6294,1.6294,1.6294,0,1.5724,1.5792,1.5805,1.5855,1.5883,1.5884,1.5937,1.5965,1.6023,1.6044,1.603,1.6134,1.6165,1.6244,1.6263,1.6285,1.6301,1.6281,1.6367,1.6374,1.6382,1.6409,1.6419,1.6295,1.6295,1.6295,1.6295,0,1.5819,1.5866,1.5903,1.5956,1.5988,1.604,1.6063,1.6094,1.61,1.612,1.6187,1.6224,1.6279,1.6298,1.6306,1.6379,1.6371,1.6362,1.6338,1.6393,1.6419,1.6429,1.6298,1.6297,1.6297,1.6296,0,0,1.5896,1.5955,1.5968,1.5993,1.604,1.6078,1.6131,1.6181,1.6208,1.6248,1.6293,1.6363,1.6355,1.6386,1.6397,1.6433,1.6493,1.642,1.6421,1.6432,1.6577,1.6584,1.6595,1.6493,1.6495,1.6497,1.6573,0,1.5968,1.6057,1.6071,1.6151,1.6195,1.6197,1.6242,1.6278,1.6298,1.634,1.6363,1.6412,1.6397,1.6416,1.6451,1.6478,1.6522,1.6473,1.6537,1.6539,1.6525,1.6609,1.6616,1.6687,1.6583,1.6585,1.6586,0,1.6063,1.6102,1.6186,1.6228,1.6247,1.6287,1.6335,1.6375,1.6416,1.6428,1.6462,1.6469,1.6525,1.6498,1.6576,1.6542,1.6569,1.6587,1.659,1.6597,1.6566,1.6619,1.671,1.672,1.6602,1.6601,1.66,0,1.6111,1.6186,1.6246,1.6266,1.6316,1.6345,1.6367,1.6406,1.6436,1.6478,1.6498,1.6548,1.6575,1.6614,1.6634,1.6613,1.6711,1.6686,1.6724,1.6724,1.6745,1.6744,1.6842,1.6762,1.6762,1.6762,1.6762,0,1.6189,1.624,1.6268,1.6305,1.6363,1.6378,1.6436,1.6458,1.6493,1.6535,1.654,1.6581,1.6605,1.665,1.6666,1.6729,1.6741,1.6754,1.6758,1.6753,1.6752,1.6772,1.6768,1.6765,1.6764,1.6764,1.6763,0,1.6253,1.6273,1.6338,1.638,1.6391,1.6432,1.6469,1.6506,1.6525,1.6579,1.6593,1.6624,1.6677,1.6701,1.6767,1.6778,1.6849,1.6849,1.6834,1.6836,1.6872,1.6869,1.6987,1.7004,1.6913,1.6914,1.6914,0,1.6301,1.6341,1.6386,1.6413,1.6436,1.6481,1.6511,1.6529,1.656,1.6609,1.664,1.6692,1.6735,1.6819,1.6849,1.6899,1.6901,1.694,1.6909,1.6904,1.6902,1.69,1.6904,1.6945,1.6946,1.6947,1.6947,0,1.6386,1.6394,1.6435,1.6481,1.6515,1.6553,1.6589,1.6612,1.6636,1.6671,1.6723,1.6756,1.6822,1.6874,1.6926,1.6952,1.6954,1.6956,1.6968,1.6964,1.6954,1.696,1.685,1.6954,1.6953,1.6953,1.6952,1.6952,1.6444,1.6479,1.6516,1.6562,1.6591,1.6625,1.6661,1.6684,1.6728,1.6781,1.6789,1.6846,1.6886,1.6956,1.6983,1.7029,1.702,1.7037,1.7041,1.7045,1.7047,1.6946,1.7039,1.7038,1.7038,1.7038,1.7038,0,1.6529,1.6552,1.6595,1.6644,1.6681,1.6678,1.6718,1.675,1.6798,1.6835,1.6876,1.6937,1.6987,1.7021,1.7072,1.7102,1.7105,1.7115,1.7113,1.7119,1.7052,1.7037,1.7112,1.7112,1.7112,1.7112,1.7112,1.7112,1.6577,1.6636,1.6648,1.6722,1.6746,1.6799,1.6822,1.6854,1.6883,1.695,1.6991,1.7011,1.7047,1.7101,1.7148,1.7157,1.7176,1.7187,1.7195,1.7132,1.7124,1.7117,1.7102,1.7191,1.7191,1.7259,1.726,1.726]},{"header":{"parameterUnit":"m.s-1","parameterCategory":1,"la1":30.2991,"la2":30.254,"lo1":-89.0895,"lo2":-89.0444,"dy":0.0017,"dx":0.0017,"nx":28,"ny":28,"refTime":"2023-08-09T03:00:00:Z","depth":0,"parameterNumber":3,"parameterNumberName":"V-component_of_WINDS"},"data":[0,0,0,0,0,0,0,0,0,0,0,0,0,0,0,0,0,0,0,0,0,0,0,0,0,0,0,0,0,0,0,0,0,0,0,0,0,0,0,0,0,0,0,0,0,0,0,0,0,0,0,0,0,0,0,0,0,0,3.1033,3.1033,0,3.1017,3.1017,3.1017,3.1036,3.1037,3.1037,3.1038,3.1018,3.1016,3.1015,0,0,0,0,0,0,0,0,0,0,0,0,0,3.1076,3.1075,3.1033,3.1033,3.1033,3.1017,3.1017,3.1017,3.1036,3.1037,3.1038,3.1038,3.1018,3.1016,3.1015,0,0,0,0,0,0,0,0,0,0,0,0,0,3.1058,3.1075,3.1033,3.1041,3.1041,3.1017,3.1017,3.1017,3.1036,3.1037,3.1038,3.1039,3.1018,3.1017,3.1015,3.0982,0,0,3.1009,3.1008,0,0,0,0,0,0,0,0,3.1059,3.1057,3.104,3.104,3.1041,3.103,3.1025,3.1005,3.1035,3.1038,3.1038,3.1039,3.102,3.1019,3.1013,3.0981,3.098,3.1009,3.1008,3.1007,3.1007,0,0,0,0,0,0,0,3.106,3.1057,3.1027,3.1039,3.104,3.1043,3.1042,3.1021,3.1023,3.1037,3.1039,3.1037,3.1021,3.1015,3.1013,3.098,3.1009,3.1008,3.1006,3.1006,3.0917,3.0916,0,0,0,0,0,0,3.1061,3.1058,3.1027,3.1026,3.1053,3.1041,3.104,3.1032,3.1023,3.1023,3.1036,3.1038,3.1017,3.1015,3.1012,3.0971,3.1007,3.1005,3.1004,3.0918,3.0917,3.0915,0,0,0,0,0,0,3.1062,3.1058,3.1028,3.1043,3.1039,3.104,3.103,3.1031,3.1025,3.1022,3.1022,3.103,3.1018,3.1015,3.0989,3.097,3.1005,3.1003,3.092,3.0918,3.0916,3.0889,0,0,0,0,0,0,3.1063,3.1059,3.1047,3.1042,3.1038,3.1006,3.1029,3.103,3.1022,3.1025,3.1016,3.1016,3.1019,3.0992,3.0987,3.0968,3.1002,3.0921,3.0919,3.0916,3.0891,3.0886,3.0882,0,0,0,0,0,3.1065,3.104,3.1047,3.1043,3.1024,3.1005,3.1003,3.1008,3.1021,3.1008,3.1006,3.1016,3.0974,3.0989,3.0984,3.0964,3.0922,3.0919,3.0917,3.0894,3.0887,3.0882,0,0,0,0,0,0,3.1041,3.1039,3.1047,3.102,3.1013,3.1009,3.0993,3.1002,3.0989,3.0992,3.0997,3.0995,3.0967,3.0964,3.0981,3.0931,3.095,3.0946,3.0934,3.0928,3.0923,3.0924,3.1,0,0,0,0,0,3.1034,3.102,3.1018,3.0995,3.0991,3.0993,3.0985,3.0989,3.0981,3.0978,3.0974,3.0965,3.0949,3.0939,3.0924,3.0892,3.0888,3.0876,3.0871,3.0867,3.0863,3.0842,3.0836,3.0906,3.0906,3.0906,0,0,3.1016,3.1014,3.1004,3.099,3.0985,3.0969,3.099,3.0973,3.096,3.0975,3.095,3.0947,3.0937,3.0907,3.0893,3.0903,3.0843,3.0863,3.086,3.0858,3.0839,3.0832,3.0826,3.0904,3.0904,3.0905,0,0,3.0976,3.0974,3.0953,3.0947,3.094,3.0941,3.0936,3.0931,3.0929,3.0905,3.0915,3.09,3.0873,3.0865,3.0857,3.0813,3.082,3.0808,3.0782,3.0762,3.0757,3.0752,3.0733,3.0727,3.0804,3.0804,3.0804,0,3.0955,3.0933,3.0941,3.0922,3.0914,3.0929,3.0906,3.09,3.0887,3.0881,3.0892,3.0858,3.0853,3.0819,3.0808,3.0803,3.0795,3.0808,3.0757,3.0752,3.0748,3.073,3.0723,3.0803,3.0803,3.0803,3.0803,0,3.0906,3.089,3.0874,3.0862,3.0853,3.0832,3.0835,3.0825,3.083,3.0829,3.0802,3.0796,3.078,3.0773,3.0778,3.0739,3.0745,3.0757,3.0776,3.0739,3.0723,3.0716,3.08,3.0801,3.0801,3.0802,0,0,3.0849,3.0843,3.0836,3.083,3.0823,3.081,3.0789,3.0774,3.0763,3.0754,3.0735,3.0712,3.0722,3.0714,3.0717,3.07,3.0662,3.0714,3.0713,3.0702,3.0616,3.0605,3.0597,3.0668,3.0667,3.0666,3.0616,0,3.0807,3.0773,3.0779,3.0744,3.0728,3.0741,3.0723,3.0715,3.0714,3.0698,3.0697,3.0679,3.0696,3.069,3.0674,3.067,3.0644,3.0674,3.0647,3.0646,3.0647,3.0589,3.0578,3.0532,3.061,3.0609,3.0608,0,3.0753,3.0743,3.0707,3.07,3.0693,3.0677,3.0662,3.0649,3.0639,3.064,3.0629,3.0636,3.0613,3.0634,3.06,3.062,3.061,3.0606,3.0604,3.06,3.0623,3.058,3.0517,3.0509,3.0598,3.0599,3.06,0,3.0712,3.0689,3.0664,3.0659,3.0651,3.0639,3.0635,3.0627,3.0617,3.0604,3.0597,3.0581,3.0572,3.0558,3.0559,3.0575,3.0524,3.0546,3.0521,3.0521,3.0508,3.0508,3.0439,3.0506,3.0506,3.0506,3.0506,0,3.0663,3.0639,3.0645,3.0629,3.0603,3.061,3.0583,3.058,3.0573,3.0555,3.0566,3.0548,3.0553,3.0535,3.0535,3.0506,3.0502,3.0499,3.0499,3.0497,3.0497,3.0488,3.049,3.0504,3.0504,3.0505,3.0505,0,3.0612,3.0615,3.0588,3.0583,3.0582,3.0562,3.0557,3.0541,3.0541,3.0518,3.0513,3.0512,3.0491,3.0492,3.0468,3.0468,3.0431,3.0436,3.0434,3.0434,3.0408,3.0409,3.0329,3.0317,3.0394,3.0393,3.0393,0,3.0579,3.0561,3.0554,3.0544,3.0539,3.0523,3.0512,3.0518,3.0507,3.0494,3.0479,3.046,3.0444,3.041,3.0406,3.0387,3.039,3.0363,3.0387,3.0384,3.0386,3.0386,3.0382,3.0357,3.0356,3.0356,3.0355,0,3.0519,3.0521,3.0507,3.0493,3.0481,3.0469,3.0459,3.045,3.0454,3.044,3.042,3.0408,3.0384,3.0363,3.0345,3.0339,3.0346,3.0348,3.0341,3.0337,3.0335,3.0332,3.0418,3.0349,3.035,3.035,3.0351,3.0351,3.0473,3.0457,3.045,3.0433,3.0427,3.0417,3.0401,3.0399,3.0382,3.0364,3.0368,3.0344,3.0333,3.031,3.0302,3.0282,3.0291,3.0281,3.0278,3.0275,3.027,3.0341,3.0279,3.0279,3.0279,3.0279,3.028,0,3.0411,3.0407,3.0392,3.0378,3.0364,3.0375,3.0364,3.0351,3.033,3.032,3.0305,3.028,3.026,3.0254,3.0234,3.0219,3.0222,3.0213,3.0213,3.021,3.0265,3.0272,3.0211,3.0211,3.0211,3.0211,3.0211,3.0211,3.0377,3.035,3.0351,3.032,3.0316,3.0294,3.0286,3.0276,3.0268,3.024,3.0224,3.0221,3.0212,3.0191,3.0172,3.0171,3.0161,3.015,3.015,3.02,3.0207,3.0213,3.022,3.0149,3.0149,3.0097,3.0096,3.0096]}]]